Hourly Data Report for January 19, 2012

HALIFAX STANFIELD INT'L A
NOVA SCOTIA

44°52'48.060" N
63°30'00.050" W
145.40 m
8202250
71395
YHZ

Download Data

Hourly Data (January 2012)
Hourly Data Report for January 19, 2012
TIME
LST
Temp Definition
°C
Dew Point Definition
°C
Rel Hum Definition
%
Precip. Amount Definition
mm

Wind Dir Definition
10's deg

Wind Spd Definition
km/h
Visibility Definition
km
Stn Press Definition
kPa
Hmdx Definition


Wind Chill Definition


Weather Definition


00:00 -7.1 -12.3 66   29 28 24.1 99.22   -15 Mainly Clear
01:00 -7.9 -12.9 67   29 33 24.1 99.34   -17 Mainly Clear
02:00 -8.1 -12.4 71   29 26 24.1 99.47   -16 Clear
03:00 -8.4 -12.6 72   31 22 24.1 99.61   -16 Mainly Clear
04:00 -8.8 -13.2 70   31 28 24.1 99.77   -18 Mainly Clear
05:00 -9.2 -13.8 69   30 20 24.1 99.90   -17 Mainly Clear
06:00 -9.5 -14.3 68   31 26 24.1 99.96   -18 Clear
07:00 -9.9 -15.6 63   32 30 24.1 100.05   -19 Mainly Clear
08:00 -10.6 -16.8 60   33 22 24.1 100.27   -19 Mainly Clear
09:00 -11.0 -17.9 57   33 24 24.1 100.41   -20 Mainly Clear
10:00 -10.7 -18.1 54   34 32 24.1 100.43   -21 Mainly Clear
11:00 -8.5 -17.3 49   33 33 24.1 100.42   -18 Mainly Clear
12:00 -8.2 -17.9 46   33 35 24.1 100.39   -18 Mostly Cloudy
13:00 -7.9 -17.4 46   34 33 24.1 100.24   -17 Mostly Cloudy
14:00 -7.4 -17.8 43   36 22 24.1 100.39   -15 Mostly Cloudy
15:00 -7.6 -17.0 47   5 15 24.1 100.45   -14 Mostly Cloudy
16:00 -7.6 -16.6 48   6 13 24.1 100.45   -13 Mostly Cloudy
17:00 -8.4 -15.4 57   5 17 24.1 100.50   -15 Mostly Cloudy
18:00 -9.7 -14.6 67   4 17 24.1 100.54   -17 Mostly Cloudy
19:00 -10.4 -14.5 72   4 13 24.1 100.49   -17 Mostly Cloudy
20:00 -10.9 -14.2 77   35 7 24.1 100.52   -15 Mostly Cloudy
21:00 -11.9 -14.2 83   36 9 24.1 100.47   -17 Mainly Clear
22:00 -12.7 -14.4 87   36 9 24.1 100.44   -18 Mainly Clear
23:00 -12.7 -14.4 87   33 9 24.1 100.48   -18 Mainly Clear

Notes on Data Quality.

Legend

  • E = Estimated
  • M = Missing
  • NA = Not Available*
  • [empty] = Indicates an unobserved value
Date modified: